TimeCDT,TemperatureF,Dew PointF,Humidity,Sea Level PressureIn,VisibilityMPH,Wind Direction,Wind SpeedMPH,Gust SpeedMPH,PrecipitationIn,Events,Conditions,WindDirDegrees,DateUTC
12:53 AM,45.0,41.0,86,30.00,5.0,South,3.5,-,0.01,,Clear,180,2012-10-21 05:53:00
1:53 AM,44.1,41.0,89,30.00,5.0,ESE,3.5,-,N/A,,Clear,120,2012-10-21 06:53:00
2:53 AM,44.1,42.1,93,30.02,5.0,East,3.5,-,N/A,,Clear,90,2012-10-21 07:53:00
3:53 AM,43.0,41.0,93,30.03,5.0,East,5.8,-,N/A,,Clear,80,2012-10-21 08:53:00
4:53 AM,44.1,41.0,89,30.03,5.0,East,6.9,-,N/A,,Clear,90,2012-10-21 09:53:00
5:53 AM,43.0,41.0,93,30.03,4.0,East,5.8,-,N/A,,Clear,100,2012-10-21 10:53:00
6:53 AM,43.0,41.0,93,30.04,5.0,East,6.9,-,N/A,,Clear,100,2012-10-21 11:53:00
7:53 AM,46.9,44.1,90,30.05,4.0,SE,6.9,-,N/A,,Clear,130,2012-10-21 12:53:00
8:53 AM,53.1,46.0,77,30.05,7.0,SSE,10.4,-,N/A,,Clear,150,2012-10-21 13:53:00
9:53 AM,57.9,48.0,70,30.06,9.0,SSE,11.5,-,N/A,,Clear,160,2012-10-21 14:53:00
10:53 AM,63.0,48.9,60,30.05,10.0,SSE,11.5,17.3,N/A,,Clear,150,2012-10-21 15:53:00
11:53 AM,68.0,48.9,50,30.04,10.0,South,15.0,21.9,N/A,,Clear,180,2012-10-21 16:53:00
12:53 PM,70.0,50.0,49,30.02,10.0,South,13.8,19.6,N/A,,Clear,170,2012-10-21 17:53:00
1:53 PM,73.0,51.1,46,30.00,10.0,South,17.3,-,N/A,,Clear,180,2012-10-21 18:53:00
2:53 PM,73.9,51.1,45,29.99,10.0,South,11.5,-,N/A,,Clear,180,2012-10-21 19:53:00
3:53 PM,75.0,53.1,46,29.98,10.0,South,13.8,-,N/A,,Clear,170,2012-10-21 20:53:00
4:53 PM,73.9,53.1,48,29.98,10.0,South,11.5,-,N/A,,Clear,170,2012-10-21 21:53:00
5:53 PM,68.0,55.0,63,29.99,10.0,SE,8.1,-,N/A,,Scattered Clouds,140,2012-10-21 22:53:00
6:53 PM,66.9,55.0,66,29.99,10.0,SE,6.9,-,N/A,,Overcast,140,2012-10-21 23:53:00
7:53 PM,66.9,54.0,63,30.00,10.0,SE,8.1,-,N/A,,Overcast,130,2012-10-22 00:53:00
8:53 PM,66.0,55.9,70,30.01,10.0,East,3.5,-,0.00,Rain,Light Rain,90,2012-10-22 01:53:00
9:53 PM,64.9,55.0,70,30.02,10.0,East,5.8,-,N/A,,Overcast,100,2012-10-22 02:53:00
10:53 PM,64.9,55.0,70,30.02,10.0,SE,8.1,-,N/A,,Overcast,140,2012-10-22 03:53:00
11:53 PM,66.0,54.0,65,30.02,10.0,SSE,9.2,-,N/A,,Overcast,150,2012-10-22 04:53:00